ATLAS CENTAUR 2 DEB, 700

Orbit data source: Space-Track

ATLAS CENTAUR 2 DEB, 700 is space debris in LEO originally from a launch on Wed, 27 Nov 1963 UTC launched from the Air Force Eastern Test Range (AFETR). Debris objects in space refer to the collection of defunct objects orbiting the Earth. Examples of debris include non-operational satellites, rocket bodies, and fragments generated from explosions, collisions, or faulty payload assembly.

Loading next visibility...
ATLAS CENTAUR 2 DEB details
Identifier
700, 1963-047F
Orbit
LEO
Last TLE update9 hours ago
Origin
Flag of USNASA LeRC (US)
ManufacturerGD/Convair
MissionSpacecraft
Bus & MotorCENTAUR PART, Unknown motor
MassUnknown
Launch date (UTC)
1963-11-27 (61 years ago)
Launch vehicleUnknown
Launch site
Air Force Eastern Test Range (AFETR)
Object type
Payload
Rocket body
Debris
Shape & HBRUnknown
Radar Cross Section0.510 m², Medium (>0.1 m² and < 1m²)

Expand to show TLE details & history

TLE from 9 hours ago
0 ATLAS CENTAUR 2 DEB
1 00700U 63047F   24356.88408347  .00000738  00000-0  25529-3 0  9993
2 00700  30.4779 201.8562 0718928 171.1203 190.2881 13.39772807977406
Epoch: 2024-12-21T21:13Z
Definitive object data (Epoch: 2024-12-21T21:13:04.811Z)
Latitude-0.00004°
Longitude152.65724°
Altitude1,639.377 km
Speed6.8 km/s
True Right ascension13h 27m 25s
True Declination0° 00' 00"
Sunlit
Object was in daylight at TLE epoch
Visualization TLE readout
Latitude20.17582°
Longitude-170.82634°
Altitude1,441.782 km
Speed6.984 km/s
Apparent Right ascension16h 31m 24s
Apparent Declination-6° 36' 07"
Sunlit
Object is in daylight
Visualization observer readout
Local Sidereal Time05:28:34
Azimuth24.848° NE
Elevation-54.301°
Doppler factor1
Orbital elements
Apogee altitude1,652.386 km
Perigee altitude575.157 km
Semi-major axis7,491.909 km
Eccentricity0.0718928
Inclination30.4779°
RAAN201.8562°
Arg. of periapsis171.1203°
True anomaly188.93675°
Mean anomaly190.2881°
Eccentric anomaly189.60108°
Mean motion3.34699 °/min
BSTAR0.00025529
Orbital period107.56 mins
Loading maneuver chart data...

ATLAS CENTAUR 2 DEB Visibility forecast

Observer location: undefined°, undefined

Span
Click to sort rows by Start time (UTC) header in descending order
Start Az.
Max El. time (UTC)
Max El. Az.
Max El.
End time (UTC)
End Az.
6 mins2024-12-22 15:14:49.091Z167.499° S2024-12-22 15:17:49.091Z149.198° SSE11.907°2024-12-22 15:20:49.091Z129.942° SE
12 mins2024-12-22 17:05:49.091Z208.817° SW2024-12-22 17:11:49.091Z163.397° S24.681°2024-12-22 17:17:49.091Z110.29° ESE
12 mins2024-12-22 18:59:49.091Z235.811° WSW2024-12-22 19:05:49.091Z182.506° SSW31.727°2024-12-22 19:11:49.091Z112.374° ESE
10 mins2024-12-22 20:54:49.091Z248.26° W2024-12-22 20:59:49.091Z196.453° SSW28.617°2024-12-22 21:04:49.091Z131.428° SE
4 mins2024-12-22 22:51:49.091Z224.462° SW2024-12-22 22:52:49.091Z212.857° SW14.487°2024-12-22 22:55:49.091Z176.502° S
|